Location: Kampernieuwstad
(52.5135°N, 5.8742°E)
Time: 08:04:59
(UTC+00:00)

Cosmos 1486 Rocket - Pass Details

Date: 15 May 2026
Orbit: 754 x 779 km, 74.1° (Epoch: 6 June)

Event Time Altitude Azimuth Distance (km) Brightness Sun altitude
Rises 20:11:01 0° 336° (NNW) 3,245 8.7 -6.2°
Reaches altitude 10° 20:13:27 10° 341° (NNW) 2,319 7.7 -6.4°
Maximum altitude 20:18:37 54° 59° (ENE) 932 4.4 -7.0°
Drops below altitude 10° 20:23:47 10° 137° (SE) 2,320 5.8 -7.6°
Enters shadow 20:23:56 - 137° (SE) 2,377 5.8 -7.6°
